CW8261 Weather Reports


Display with metric or nautical units.
time (UTC)temp
F
wind
direction
speed
MPH
gust
MPH
rain 1hr
in
rain 24hr
in
rain mn
in
humidity
%
barometer
mb
20260906115517 71 59 3.0 7.0 0.00 0.00 0.00 94 1015.6
20260906114518 71 38 5.0 7.0 0.00 0.00 0.00 93 1015.4
20260906113524 71 40 2.0 4.0 0.00 0.00 0.00 93 1015.1
20260906112518 71 55 3.0 6.0 0.00 0.00 0.00 92 1015.0
20260906111518 71 40 2.0 5.0 0.00 0.00 0.00 92 1014.9
20260906110518 72 34 3.0 4.0 0.00 0.00 0.00 92 1014.9
20260906105518 72 33 3.0 4.0 0.00 0.00 0.00 91 1014.8
20260906104520 72 31 3.0 5.0 0.00 0.00 0.00 91 1014.7
20260906103519 72 40 2.0 3.0 0.00 0.00 0.00 91 1014.7
20260906102519 73 21 4.0 4.0 0.00 0.00 0.00 90 1014.7
20260906101517 73 24 3.0 5.0 0.00 0.00 0.00 90 1014.5
20260906100517 73 39 3.0 5.0 0.00 0.00 0.00 89 1014.5
20260906095519 73 30 4.0 7.0 0.00 0.00 0.00 89 1014.3
20260906094521 74 30 4.0 7.0 0.00 0.00 0.00 89 1014.2
20260906093518 74 32 3.0 7.0 0.00 0.00 0.00 88 1014.2
20260906092519 74 26 3.0 5.0 0.00 0.00 0.00 88 1014.3
20260906091518 74 37 4.0 6.0 0.00 0.00 0.00 87 1014.2
20260906090519 75 44 3.0 7.0 0.00 0.00 0.00 87 1014.1
20260906085518 75 46 2.0 4.0 0.00 0.00 0.00 87 1014.0
20260906084539 75 45 2.0 4.0 0.00 0.00 0.00 86 1013.9
20260906083519 75 47 2.0 3.0 0.00 0.00 0.00 86 1013.8
20260906082519 76 47 2.0 5.0 0.00 0.00 0.00 85 1013.8
20260906081519 76 46 3.0 6.0 0.00 0.00 0.00 84 1013.9
20260906080521 76 54 2.0 5.0 0.00 0.00 0.00 84 1013.9
20260906075519 77 70 2.0 4.0 0.00 0.00 0.00 83 1014.0
20260906074520 77 88 2.0 4.0 0.00 0.00 0.00 83 1013.9
20260906073521 77 51 3.0 6.0 0.00 0.00 0.00 83 1013.9
20260906072521 78 44 2.0 4.0 0.00 0.00 0.00 83 1013.9
20260906071520 78 28 1.0 3.0 0.00 0.00 0.00 82 1013.9
20260906070540 78 43 2.0 5.0 0.00 0.00 0.00 81 1013.8
20260906065520 79 45 1.0 2.0 0.00 0.00 0.00 80 1013.8
20260906064519 79 99 1.0 3.0 0.00 0.00 0.00 80 1014.0
20260906063520 80 94 2.0 5.0 0.00 0.00 0.00 79 1014.0
20260906062520 80 94 2.0 6.0 0.00 0.00 0.00 79 1014.0
20260906061517 80 66 2.0 6.0 0.00 0.00 0.00 79 1014.1
20260906060517 80 87 2.0 5.0 0.00 0.00 0.00 80 1014.3
20260906055541 81 91 2.0 5.0 0.00 0.00 0.00 81 1014.2
20260906054518 81 84 2.0 5.0 0.00 0.00 0.00 82 1014.1
20260906053517 81 81 1.0 3.0 0.00 0.00 0.00 82 1014.2
20260906052517 81 69 2.0 4.0 0.00 0.00 0.00 81 1014.2
20260906051518 81 96 1.0 3.0 0.00 0.00 0.00 81 1014.2
20260906050518 82 90 2.0 5.0 0.00 0.00 0.00 80 1014.1
20260906045518 82 54 1.0 4.0 0.00 0.00 0.00 80 1013.9
20260906044520 82 53 1.0 3.0 0.00 0.00 0.00 79 1013.8
20260906043518 83 40 1.0 4.0 0.00 0.00 0.00 77 1013.7
20260906042516 83 44 1.0 4.0 0.00 0.00 0.00 76 1013.5
20260906041518 84 51 1.0 3.0 0.00 0.00 0.00 75 1013.6
20260906040519 84 29 2.0 6.0 0.00 0.00 0.00 74 1013.5
20260906035519 84 65 1.0 3.0 0.00 0.00 0.00 74 1013.4
20260906034538 84 35 1.0 3.0 0.00 0.00 0.00 73 1013.3
20260906033517 84 41 1.0 4.0 0.00 0.00 0.00 73 1013.2
20260906032520 84 34 1.0 3.0 0.00 0.00 0.00 72 1013.3
20260906031520 84 30 2.0 4.0 0.00 0.00 0.00 71 1013.3
20260906030518 85 24 2.0 4.0 0.00 0.00 0.00 70 1013.2
20260906025519 85 30 3.0 5.0 0.00 0.00 0.00 69 1013.2
20260906024517 85 32 2.0 5.0 0.00 0.00 0.00 67 1013.1
20260906023539 85 22 2.0 5.0 0.00 0.00 0.00 67 1013.1
20260906022518 85 16 1.0 3.0 0.00 0.00 0.00 66 1012.9
20260906021518 85 26 2.0 4.0 0.00 0.00 0.00 65 1012.8
20260906020518 85 11 3.0 4.0 0.00 0.00 0.00 64 1012.6
20260906015518 85 11 3.0 5.0 0.00 0.00 0.00 64 1012.5
20260906014521 85 2 2.0 3.0 0.00 0.00 0.00 64 1012.4
20260906013518 86 19 1.0 2.0 0.00 0.00 0.00 62 1012.3
20260906012519 86 30 2.0 3.0 0.00 0.00 0.00 61 1012.2
20260906011520 86 8 1.0 2.0 0.00 0.00 0.00 61 1012.2
20260906010516 87 28 2.0 3.0 0.00 0.00 0.00 60 1012.0
20260906005521 88 10 2.0 3.0 0.00 0.00 0.00 58 1011.8
20260906004520 88 353 3.0 5.0 0.00 0.00 0.00 57 1011.8
20260906003517 89 350 4.0 6.0 0.00 0.00 0.00 56 1011.8
20260906002537 89 345 10.0 15.0 0.00 0.00 0.00 55 1011.8
20260906001539 90 344 11.0 15.0 0.00 0.00 0.00 55 1011.9
20260906000518 91 345 11.0 16.0 0.00 0.00 0.00 54 1011.9
20260905235518 91 344 11.0 16.0 0.00 0.00 0.00 53 1011.9
20260905234518 92 344 11.0 16.0 0.00 0.00 0.00 52 1011.9
20260905233518 93 345 11.0 16.0 0.00 0.00 0.00 52 1011.9
20260905232538 94 346 11.0 15.0 0.00 0.00 0.00 51 1011.9
20260905231518 94 349 11.0 15.0 0.00 0.00 0.00 50 1011.8
20260905230519 95 313 3.0 4.0 0.00 0.00 0.00 48 1011.6
20260905225519 96 314 3.0 4.0 0.00 0.00 0.00 46 1011.6
20260905224520 96 313 3.0 4.0 0.00 0.00 0.00 44 1011.5
20260905223601 97 314 3.0 4.0 0.00 0.00 0.00 43 1011.6
20260905222520 97 313 3.0 4.0 0.00 0.00 0.00 41 1011.7
20260905221520 97 313 3.0 4.0 0.00 0.00 0.00 42 1011.6
20260905220517 96 314 3.0 4.0 0.00 0.00 0.00 45 1011.6
20260905215517 96 314 3.0 4.0 0.00 0.00 0.00 47 1011.6
20260905214520 96 313 3.0 4.0 0.00 0.00 0.00 48 1011.5
20260905213521 96 313 3.0 4.0 0.00 0.00 0.00 49 1011.6
20260905212538 97 313 3.0 4.0 0.00 0.00 0.00 48 1011.5
20260905211517 98 313 3.0 4.0 0.00 0.00 0.00 42 1011.6
20260905210519 98 313 3.0 4.0 0.00 0.00 0.00 41 1011.5
20260905205522 99 313 3.0 4.0 0.00 0.00 0.00 41 1011.5
20260905204518 99 313 3.0 4.0 0.00 0.00 0.00 41 1011.7
20260905203519 100 315 2.0 4.0 0.00 0.00 0.00 41 1011.6
20260905202518 99 313 4.0 5.0 0.00 0.00 0.00 41 1011.8
20260905201518 99 311 3.0 5.0 0.00 0.00 0.00 40 1011.9
20260905200521 99 313 3.0 4.0 0.00 0.00 0.00 40 1011.9
20260905195519 99 313 3.0 4.0 0.00 0.00 0.00 40 1012.0
20260905194521 99 313 3.0 4.0 0.00 0.00 0.00 41 1012.2
20260905193519 99 308 3.0 5.0 0.00 0.00 0.00 40 1012.1
20260905192519 98 307 4.0 6.0 0.00 0.00 0.00 42 1012.4
20260905191537 98 308 4.0 5.0 0.00 0.00 0.00 40 1012.5
20260905190520 98 308 4.0 6.0 0.00 0.00 0.00 42 1012.6
20260905185520 98 311 3.0 5.0 0.00 0.00 0.00 43 1012.7
20260905184517 98 313 2.0 4.0 0.00 0.00 0.00 44 1012.8
20260905183519 98 308 2.0 3.0 0.00 0.00 0.00 45 1013.0
20260905182517 97 308 2.0 3.0 0.00 0.00 0.00 45 1013.1
20260905181521 97 309 2.0 3.0 0.00 0.00 0.00 47 1013.2
20260905180518 97 311 2.0 3.0 0.00 0.00 0.00 47 1013.2
20260905175519 97 312 2.0 3.0 0.00 0.00 0.00 47 1013.3
20260905174518 96 135 2.0 5.0 0.00 0.00 0.00 48 1013.4
20260905173520 96 136 2.0 5.0 0.00 0.00 0.00 50 1013.5
20260905172518 96 137 2.0 5.0 0.00 0.00 0.00 50 1013.5
20260905171519 96 134 2.0 6.0 0.00 0.00 0.00 50 1013.6
20260905170520 95 333 3.0 8.0 0.00 0.00 0.00 52 1013.8
20260905165518 94 356 3.0 9.0 0.00 0.00 0.00 51 1014.0
20260905164520 94 340 5.0 10.0 0.00 0.00 0.00 53 1014.2
20260905163519 93 338 4.0 9.0 0.00 0.00 0.00 54 1014.2
20260905162519 93 335 4.0 9.0 0.00 0.00 0.00 54 1014.3
20260905161519 92 322 3.0 8.0 0.00 0.00 0.00 57 1014.4
20260905160517 92 342 5.0 10.0 0.00 0.00 0.00 58 1014.5
20260905155518 92 315 2.0 10.0 0.00 0.00 0.00 58 1014.5
20260905154520 91 349 4.0 8.0 0.00 0.00 0.00 58 1014.5
20260905153520 90 315 3.0 10.0 0.00 0.00 0.00 59 1014.5
20260905152517 90 356 5.0 9.0 0.00 0.00 0.00 59 1014.5
20260905151539 89 345 2.0 5.0 0.00 0.00 0.00 62 1014.5
20260905150519 88 350 7.0 10.0 0.00 0.00 0.00 62 1014.5
20260905145542 88 342 4.0 8.0 0.00 0.00 0.00 62 1014.5
20260905144520 88 293 2.0 5.0 0.00 0.00 0.00 64 1014.5
20260905143518 88 309 2.0 7.0 0.00 0.00 0.00 64 1014.5
20260905142519 87 341 3.0 6.0 0.00 0.00 0.00 66 1014.6
20260905141518 88 289 1.0 3.0 0.00 0.00 0.00 68 1014.7
20260905140519 87 277 1.0 2.0 0.00 0.00 0.00 68 1014.7
20260905135519 86 237 1.0 2.0 0.00 0.00 0.00 71 1014.7
20260905134519 86 221 1.0 3.0 0.00 0.00 0.00 70 1014.8
20260905133519 85 205 1.0 2.0 0.00 0.00 0.00 71 1014.7
20260905132517 83 230 1.0 3.0 0.00 0.00 0.00 75 1014.5
20260905131520 82 198 0.0 2.0 0.00 0.00 0.00 81 1014.2
20260905130521 80 185 2.0 3.0 0.00 0.00 0.00 83 1014.2
20260905125520 78 183 1.0 2.0 0.00 0.00 0.00 86 1014.2
20260905124517 77 173 1.0 2.0 0.00 0.00 0.00 88 1014.1
20260905123517 76 173 2.0 2.0 0.00 0.00 0.00 90 1014.0
20260905122520 76 167 0.0 2.0 0.00 0.00 0.00 92 1014.0
20260905121521 75 162 1.0 2.0 0.00 0.00 0.00 93 1013.8
20260905120527 75 177 1.0 2.0 0.00 0.00 0.00 93 1013.7